Location: Paddlesworth
(51.1000°N, 1.1333°E)
Time: 01:41:09
(UTC+00:00)

Okean 1 - Pass Details

Date: 28 September 2021
Orbit: 538 x 553 km, 82.5° (Epoch: 17 October)

Event Time Altitude Azimuth Distance (km) Brightness Sun altitude
Rises 04:37:45 0° 190° (S) 2,683 6.6 -12.3°
Reaches altitude 10° 04:39:53 10° 191° (S) 1,797 5.7 -12.0°
Maximum altitude 04:43:51 86° 279° (W) 549 3.2 -11.4°
Drops below altitude 10° 04:47:51 10° 10° (N) 1,818 6.2 -10.7°
Sets 04:50:01 0° 11° (N) 2,717 7.1 -10.4°
